| time (UTC) | temp F | wind direction | speed MPH | gust MPH | rain 1hr in | rain 24hr in | rain mn in | humidity % | barometer mb |
| 20260510073038 | 52 | 237 | 1.0 | 4.0 | 0.00 | 0.00 | 0.00 | ||
| 20260510070104 | 52 | 252 | 0.0 | 1.0 | 0.00 | 0.00 | 0.00 | ||
| 20260510063046 | 53 | 242 | 0.0 | 1.0 | 0.00 | 0.00 | 0.00 | ||
| 20260510060055 | 53 | 212 | 0.0 | 0.0 | 0.00 | 0.00 | 0.00 | ||
| 20260510053037 | 54 | 212 | 0.0 | 0.0 | 0.00 | 0.00 | 0.00 | ||
| 20260510043048 | 55 | 306 | 0.0 | 2.0 | 0.00 | 0.00 | 0.00 | ||
| 20260510040057 | 57 | 240 | 0.0 | 6.0 | 0.00 | 0.00 | 0.00 | ||
| 20260510033035 | 59 | 252 | 0.0 | 4.0 | 0.00 | 0.00 | 0.00 | ||
| 20260510030106 | 61 | 226 | 0.0 | 2.0 | 0.00 | 0.00 | 0.00 | ||
| 20260510023043 | 63 | 256 | 0.0 | 1.0 | 0.00 | 0.00 | 0.00 | ||
| 20260510020051 | 64 | 212 | 2.0 | 5.0 | 0.00 | 0.00 | 0.00 | ||
| 20260510013051 | 65 | 248 | 0.0 | 7.0 | 0.00 | 0.00 | 0.00 | ||
| 20260510010100 | 66 | 211 | 1.0 | 5.0 | 0.00 | 0.00 | 0.00 | ||
| 20260510003040 | 67 | 260 | 2.0 | 7.0 | 0.00 | 0.00 | 0.00 | ||
| 20260510000107 | 68 | 236 | 1.0 | 6.0 | 0.00 | 0.00 | 0.00 | ||
| 20260509233046 | 71 | 93 | 2.0 | 5.0 | 0.00 | 0.00 | 0.00 | ||
| 20260509230054 | 71 | 271 | 0.0 | 3.0 | 0.00 | 0.00 | 0.00 | ||
| 20260509223053 | 71 | 275 | 0.0 | 3.0 | 0.00 | 0.00 | 0.00 | ||
| 20260509220100 | 70 | 64 | 1.0 | 3.0 | 0.00 | 0.00 | 0.00 | ||
| 20260509213039 | 70 | 308 | 1.0 | 3.0 | 0.00 | 0.00 | 0.00 | ||
| 20260509210106 | 70 | 146 | 0.0 | 5.0 | 0.00 | 0.00 | 0.00 | ||
| 20260509203050 | 67 | 64 | 3.0 | 6.0 | 0.00 | 0.00 | 0.00 | ||
| 20260509200103 | 66 | 81 | 1.0 | 7.0 | 0.00 | 0.00 | 0.00 | ||
| 20260509193045 | 66 | 71 | 0.0 | 6.0 | 0.00 | 0.00 | 0.00 | ||
| 20260509180105 | 62 | 79 | 3.0 | 5.0 | 0.00 | 0.00 | 0.00 | ||
| 20260509173044 | 61 | 172 | 2.0 | 4.0 | 0.00 | 0.00 | 0.00 | ||
| 20260509160104 | 56 | 68 | 0.0 | 5.0 | 0.00 | 0.00 | 0.00 | ||
| 20260509150058 | 53 | 65 | 1.0 | 4.0 | 0.00 | 0.00 | 0.00 | ||
| 20260509133047 | 52 | 73 | 1.0 | 3.0 | 0.00 | 0.00 | 0.00 | ||
| 20260509130059 | 52 | 84 | 0.0 | 1.0 | 0.00 | 0.00 | 0.00 | ||
| 20260509123037 | 52 | 97 | 1.0 | 2.0 | 0.00 | 0.00 | 0.00 | ||
| 20260509110104 | 52 | 86 | 0.0 | 1.0 | 0.00 | 0.00 | 0.00 | ||
| 20260509103044 | 52 | 54 | 0.0 | 3.0 | 0.00 | 0.00 | 0.00 | ||
| 20260509100054 | 52 | 75 | 1.0 | 2.0 | 0.00 | 0.00 | 0.00 | ||
| 20260509093039 | 52 | 65 | 0.0 | 1.0 | 0.00 | 0.00 | 0.00 | ||
| 20260509090104 | 52 | 65 | 0.0 | 1.0 | 0.00 | 0.00 | 0.00 | ||
| 20260509083020 | 53 | 65 | 0.0 | 1.0 | 0.00 | 0.00 | 0.00 | ||
| 20260509080103 | 53 | 69 | 0.0 | 2.0 | 0.00 | 0.00 | 0.00 |